This is the latest recevied weather packets stored in our database for station/object KD9NSC. If no packets are shown the sender has not sent any weather packets the latest 10 day(s).
| Time | Temp. | Humidity | Pressure | Rain* | Wind** | Luminosity | Snow |
|---|---|---|---|---|---|---|---|
| 1777776981 | 5.56° C | 74% | 1018.8 hPa | 0 mm | - | 0 W/m² | - |
| 1777776679 | 5.56° C | 74% | 1018.7 hPa | 0 mm | - | 0 W/m² | - |
| 1777776375 | 5.56° C | 74% | 1018.7 hPa | 0 mm | - | 0 W/m² | - |
| 1777776072 | 5.56° C | 74% | 1018.8 hPa | 0 mm | - | 0 W/m² | - |
| 1777775769 | 5.56° C | 73% | 1018.8 hPa | 0 mm | - | 0 W/m² | - |
| 1777775467 | 5.56° C | 73% | 1018.7 hPa | 0 mm | - | 0 W/m² | - |
| 1777775162 | 5.56° C | 73% | 1018.5 hPa | 0 mm | - | 0 W/m² | - |
| 1777774857 | 5.56° C | 74% | 1018.5 hPa | 0 mm | - | 0 W/m² | - |
| 1777774555 | 5.56° C | 72% | 1018.8 hPa | 0 mm | - | 0 W/m² | - |
| 1777774251 | 6.11° C | 71% | 1018.5 hPa | 0 mm | - | 0 W/m² | - |
| 1777773948 | 6.11° C | 71% | 1018.5 hPa | 0 mm | - | 0 W/m² | - |
| 1777773645 | 6.11° C | 70% | 1018.7 hPa | 0 mm | - | 0 W/m² | - |
| 1777773342 | 6.11° C | 71% | 1018.7 hPa | 0 mm | - | 0 W/m² | - |
| 1777773039 | 6.11° C | 71% | 1018.7 hPa | 0 mm | - | 0 W/m² | - |
| 1777772735 | 6.11° C | 72% | 1018.5 hPa | 0 mm | - | 0 W/m² | - |
| 1777772433 | 6.11° C | 72% | 1018.4 hPa | 0 mm | - | 0 W/m² | - |
| 1777772130 | 6.11° C | 71% | 1018.4 hPa | 0 mm | - | 0 W/m² | - |
| 1777771828 | 6.67° C | 71% | 1018.3 hPa | 0 mm | - | 0 W/m² | - |
| 1777771525 | 6.67° C | 70% | 1018.3 hPa | 0 mm | - | 0 W/m² | - |
| 1777771221 | 6.67° C | 69% | 1018.5 hPa | 0 mm | - | 0 W/m² | - |
| 1777770918 | 6.67° C | 71% | 1018.3 hPa | 0 mm | - | 0 W/m² | - |
| 1777770615 | 7.22° C | 66% | 1018.4 hPa | 0 mm | - | 0 W/m² | - |
| 1777770311 | 7.22° C | 65% | 1018.4 hPa | 0 mm | - | 0 W/m² | - |
| 1777770009 | 7.22° C | 64% | 1018.4 hPa | 0 mm | - | 0 W/m² | - |
| 1777769706 | 7.78° C | 63% | 1018.4 hPa | 0 mm | - | 0 W/m² | - |
* Rain latest hour (hover to see other rain measurements)
** Current wind speed in m/s (hover to see current wind gust speed)